GFSFLT2_prec_pwat_069.txt.gz
Precipitable_Water
1.57 1.63 1.59 1.59 1.58 1.45 1.75 1.72 1.61 1.48 1.27 1.23 1.16 1.09 1.00 0.96 0.93 0.89 0.89 0.90 0.90 0.87 0.97 0.99 0.97 0.94 0.93 0.93 0.85 0.74 0.68 0.70
1.50 1.58 1.45 1.41 1.52 1.47 1.72 1.71 1.74 1.57 1.43 1.37 1.18 1.07 1.00 0.94 0.87 0.82 0.77 0.85 0.88 0.84 0.85 0.97 1.02 0.96 0.94 0.90 0.81 0.74 0.67 0.69
1.50 1.52 1.51 1.46 1.51 1.40 1.59 1.70 1.73 1.65 1.46 1.22 1.09 1.05 0.99 0.91 0.86 0.83 0.78 0.80 0.83 0.83 0.84 0.90 0.95 0.98 0.97 0.87 0.77 0.72 0.69 0.69
1.42 1.43 1.42 1.43 1.40 1.35 1.46 1.49 1.57 1.53 1.42 1.23 1.07 1.00 0.96 0.94 0.93 0.88 0.82 0.78 0.84 0.85 0.83 0.91 0.94 0.96 0.93 0.82 0.75 0.74 0.72 0.69
1.25 1.29 1.32 1.33 1.31 1.42 1.45 1.45 1.49 1.48 1.46 1.19 1.06 1.04 1.00 1.00 0.96 0.89 0.83 0.81 0.81 0.85 0.81 0.77 0.83 0.85 0.83 0.81 0.75 0.73 0.72 0.72
1.13 1.18 1.21 1.27 1.30 1.34 1.42 1.48 1.50 1.47 1.43 1.23 1.05 1.03 1.02 1.03 0.96 0.92 0.90 0.92 0.92 0.88 0.79 0.76 0.75 0.80 0.79 0.79 0.75 0.72 0.72 0.75
1.08 1.18 1.22 1.27 1.27 1.29 1.37 1.38 1.42 1.42 1.43 1.30 1.09 1.07 1.05 1.05 1.00 0.97 0.98 1.04 0.98 0.94 0.88 0.77 0.73 0.72 0.75 0.76 0.72 0.69 0.73 0.76
1.13 1.27 1.30 1.35 1.25 1.27 1.36 1.39 1.41 1.42 1.43 1.30 1.16 1.11 1.07 1.05 1.00 1.00 1.04 1.06 1.01 0.98 0.94 0.87 0.74 0.70 0.67 0.68 0.68 0.70 0.72 0.75
1.18 1.29 1.37 1.32 1.28 1.28 1.39 1.37 1.33 1.33 1.34 1.26 1.14 1.11 1.05 1.02 1.00 1.01 1.02 1.06 1.04 1.00 0.96 0.90 0.82 0.71 0.64 0.62 0.61 0.65 0.67 0.71
1.24 1.32 1.35 1.38 1.33 1.36 1.40 1.41 1.43 1.37 1.28 1.20 1.13 1.10 1.06 1.00 0.98 0.99 0.98 1.02 1.03 0.99 0.97 0.93 0.89 0.79 0.71 0.65 0.59 0.59 0.60 0.63
1.18 1.29 1.34 1.33 1.31 1.37 1.36 1.37 1.31 1.25 1.21 1.13 1.10 1.09 1.07 1.00 0.98 0.99 0.96 1.01 1.04 1.02 1.01 0.99 0.94 0.83 0.74 0.68 0.67 0.66 0.68 0.67
1.17 1.25 1.31 1.33 1.28 1.21 1.27 1.27 1.25 1.25 1.15 1.11 1.10 1.09 1.10 1.04 1.04 1.02 1.00 1.00 1.00 1.02 1.05 1.05 0.98 0.87 0.81 0.75 0.73 0.75 0.76 0.78
1.08 1.21 1.26 1.27 1.21 1.20 1.21 1.13 1.18 1.19 1.21 1.21 1.18 1.15 1.13 1.10 1.09 1.08 1.07 0.98 0.96 1.02 1.08 1.05 0.98 0.94 0.88 0.86 0.87 0.85 0.83 0.85
0.94 1.06 1.12 1.10 1.14 1.18 1.15 1.11 1.13 1.12 1.13 1.15 1.17 1.12 1.11 1.10 1.09 1.07 1.02 0.96 0.99 1.05 1.07 1.03 1.00 1.02 0.92 0.88 0.77 0.82 0.87 0.89
0.83 0.90 0.98 0.98 0.97 1.02 1.05 1.08 1.06 1.02 1.00 0.99 1.03 1.04 1.07 1.08 1.10 1.05 1.01 0.97 0.96 1.02 1.09 1.09 1.02 1.08 1.04 0.92 0.79 0.75 0.86 0.94
0.80 0.87 0.90 0.92 0.91 0.86 0.85 0.87 0.85 0.87 0.90 0.92 0.94 1.02 1.04 1.08 1.10 1.11 1.11 1.06 1.06 1.10 1.16 1.13 1.11 1.02 1.07 1.09 1.04 0.98 0.85 0.77
0.75 0.81 0.83 0.85 0.84 0.82 0.83 0.84 0.85 0.86 0.88 0.85 0.85 0.91 0.97 0.98 1.05 1.05 1.03 1.09 1.14 1.15 1.13 1.12 1.15 1.12 1.09 1.07 1.04 1.04 0.95 0.89
0.70 0.75 0.78 0.80 0.79 0.79 0.79 0.78 0.78 0.79 0.80 0.80 0.81 0.85 0.88 0.90 0.92 0.97 0.99 1.03 1.06 1.08 1.12 1.12 1.10 1.08 1.08 1.05 0.99 0.98 0.90 0.83
0.68 0.72 0.73 0.79 0.78 0.76 0.76 0.77 0.82 0.79 0.80 0.82 0.81 0.81 0.85 0.86 0.86 0.89 0.96 1.02 1.06 1.14 1.18 1.19 1.14 1.09 1.04 1.01 0.99 0.98 0.89 0.91
0.67 0.67 0.70 0.77 0.78 0.77 0.80 0.81 0.81 0.81 0.84 0.85 0.85 0.86 0.85 0.89 0.94 1.07 1.13 1.18 1.23 1.28 1.26 1.23 1.15 1.11 1.05 1.00 1.02 0.90 0.95 0.96

GFSFLT2_prec_pwat_072.txt.gz
Precipitable_Water
1.39 1.45 1.51 1.52 1.53 1.53 1.51 1.65 1.66 1.62 1.53 1.26 1.20 1.11 1.12 1.14 1.09 1.01 0.97 1.05 1.07 1.06 1.01 0.96 0.91 0.86 0.81 0.77 0.77 0.79 0.79 0.75
1.43 1.45 1.46 1.43 1.43 1.39 1.39 1.56 1.73 1.62 1.52 1.42 1.21 1.17 1.09 1.04 1.02 0.97 0.96 1.04 1.05 1.02 1.00 0.98 0.95 0.89 0.86 0.83 0.79 0.82 0.76 0.73
1.44 1.44 1.43 1.40 1.34 1.35 1.36 1.53 1.72 1.65 1.54 1.34 1.19 1.07 1.00 1.00 0.96 0.96 0.92 1.00 1.06 1.06 1.05 1.00 0.94 0.91 0.86 0.82 0.81 0.81 0.76 0.74
1.41 1.45 1.42 1.42 1.40 1.37 1.51 1.69 1.67 1.60 1.54 1.37 1.18 1.07 1.03 0.90 0.92 0.94 0.92 0.93 0.98 1.04 1.01 1.00 0.97 0.94 0.87 0.85 0.84 0.80 0.76 0.77
1.33 1.33 1.36 1.33 1.30 1.37 1.54 1.64 1.62 1.63 1.47 1.34 1.11 1.09 0.95 0.86 0.85 0.86 0.90 0.93 0.93 0.98 0.98 0.95 0.95 0.87 0.81 0.82 0.80 0.79 0.76 0.76
1.22 1.20 1.20 1.22 1.22 1.25 1.44 1.58 1.57 1.49 1.43 1.28 1.07 0.95 0.87 0.82 0.81 0.79 0.85 0.87 0.85 0.88 0.93 0.97 0.90 0.84 0.82 0.80 0.80 0.78 0.78 0.79
1.10 1.10 1.10 1.18 1.18 1.24 1.43 1.54 1.53 1.48 1.40 1.16 1.01 0.92 0.90 0.86 0.84 0.84 0.88 0.88 0.84 0.82 0.89 0.87 0.85 0.83 0.81 0.79 0.78 0.78 0.78 0.79
1.06 1.14 1.21 1.24 1.21 1.24 1.37 1.48 1.50 1.46 1.35 1.09 1.00 1.01 0.97 0.94 0.94 0.96 0.94 0.92 0.89 0.88 0.84 0.82 0.81 0.78 0.77 0.78 0.76 0.76 0.76 0.76
1.11 1.23 1.31 1.27 1.27 1.26 1.35 1.47 1.48 1.44 1.34 1.13 1.03 1.04 1.08 1.05 1.03 1.06 1.06 1.06 1.02 0.97 0.90 0.83 0.76 0.72 0.70 0.72 0.71 0.71 0.71 0.73
1.12 1.28 1.31 1.34 1.28 1.24 1.34 1.45 1.49 1.43 1.34 1.18 1.12 1.17 1.08 1.11 1.08 1.09 1.11 1.11 1.05 0.98 0.93 0.85 0.80 0.76 0.68 0.65 0.66 0.67 0.68 0.72
1.13 1.26 1.30 1.31 1.35 1.34 1.35 1.40 1.41 1.40 1.30 1.22 1.20 1.11 1.13 1.10 1.08 1.08 1.10 1.08 1.07 1.01 0.97 0.94 0.88 0.85 0.77 0.71 0.68 0.66 0.69 0.73
1.16 1.26 1.31 1.36 1.34 1.35 1.37 1.36 1.36 1.42 1.29 1.22 1.14 1.12 1.12 1.10 1.06 1.05 1.05 1.05 1.05 1.04 1.00 1.02 0.98 0.94 0.84 0.77 0.75 0.75 0.76 0.75
1.11 1.23 1.29 1.32 1.27 1.18 1.24 1.24 1.30 1.33 1.32 1.21 1.13 1.11 1.09 1.05 1.03 1.05 1.08 1.00 1.01 1.04 1.03 1.04 1.04 1.04 0.90 0.84 0.84 0.86 0.86 0.87
1.00 1.15 1.24 1.28 1.29 1.25 1.26 1.27 1.30 1.28 1.28 1.21 1.15 1.12 1.12 1.09 1.06 1.08 1.09 1.02 1.00 1.01 1.02 1.02 1.05 1.08 0.89 0.86 0.79 0.85 0.88 0.90
0.86 0.99 1.08 1.14 1.19 1.20 1.22 1.24 1.24 1.20 1.18 1.16 1.16 1.18 1.14 1.14 1.14 1.10 1.08 1.06 1.00 0.99 1.01 1.03 0.98 1.07 1.04 0.93 0.79 0.78 0.86 0.95
0.79 0.86 0.92 0.95 0.99 1.01 1.03 1.04 1.06 1.10 1.14 1.14 1.12 1.19 1.16 1.16 1.13 1.12 1.03 1.04 1.03 1.01 1.00 1.00 1.03 1.00 1.07 1.07 1.04 0.98 0.84 0.80
0.75 0.80 0.84 0.87 0.87 0.92 0.96 0.92 0.93 0.97 0.98 0.98 1.01 1.05 1.07 1.07 1.06 1.05 1.02 1.05 1.10 1.10 1.07 1.11 1.13 1.08 1.05 1.05 1.06 1.05 1.02 0.91
0.69 0.74 0.78 0.81 0.81 0.81 0.85 0.83 0.84 0.85 0.85 0.85 0.87 0.89 0.94 0.97 0.97 0.99 1.03 1.07 1.06 1.09 1.12 1.12 1.10 1.06 1.08 1.06 1.01 0.95 0.90 0.90
0.66 0.70 0.73 0.79 0.80 0.80 0.79 0.82 0.86 0.84 0.82 0.82 0.81 0.81 0.82 0.85 0.92 0.93 0.94 0.95 0.98 0.99 1.00 1.03 1.07 1.08 1.12 1.11 1.10 1.06 1.02 0.93
0.68 0.67 0.70 0.78 0.80 0.79 0.82 0.82 0.85 0.87 0.87 0.86 0.86 0.85 0.86 0.90 0.90 0.93 0.94 0.92 0.93 0.97 1.03 1.09 1.19 1.20 1.21 1.17 1.09 1.07 1.03 0.98

GFSFLT2_prec_pwat_075.txt.gz
Precipitable_Water
1.48 1.58 1.52 1.51 1.47 1.49 1.48 1.52 1.75 1.66 1.63 1.51 1.38 1.29 1.27 1.13 1.17 1.09 1.06 1.11 1.12 1.10 1.01 0.83 0.81 0.80 0.80 0.78 0.77 0.79 0.81 0.85
1.48 1.55 1.53 1.50 1.51 1.50 1.46 1.48 1.60 1.78 1.65 1.58 1.42 1.40 1.25 1.09 1.08 1.05 1.10 1.12 1.10 1.08 0.94 0.90 0.87 0.84 0.82 0.79 0.80 0.80 0.79 0.86
1.47 1.51 1.53 1.56 1.53 1.50 1.47 1.45 1.43 1.61 1.79 1.60 1.43 1.24 1.20 1.19 1.01 1.05 1.13 1.10 1.09 1.04 0.99 0.97 0.91 0.87 0.83 0.79 0.81 0.85 0.80 0.85
1.37 1.48 1.50 1.52 1.48 1.45 1.41 1.41 1.55 1.64 1.69 1.60 1.31 1.23 1.20 1.07 0.98 1.09 1.15 1.12 1.09 1.08 1.03 0.98 0.95 0.86 0.87 0.85 0.85 0.83 0.83 0.86
1.33 1.38 1.46 1.45 1.38 1.37 1.42 1.45 1.58 1.71 1.66 1.51 1.32 1.26 1.21 1.06 0.97 1.05 1.13 1.13 1.09 1.07 1.04 0.96 0.88 0.86 0.88 0.88 0.85 0.89 0.86 0.84
1.28 1.29 1.28 1.31 1.31 1.32 1.37 1.50 1.64 1.61 1.55 1.45 1.27 1.11 1.04 0.98 0.93 0.95 1.04 1.08 1.04 1.03 0.97 0.95 0.88 0.88 0.89 0.85 0.87 0.87 0.84 0.83
1.12 1.19 1.12 1.19 1.19 1.27 1.35 1.53 1.58 1.53 1.50 1.35 1.16 0.98 0.93 0.97 0.94 0.94 0.92 0.96 0.99 1.00 1.01 0.95 0.90 0.87 0.84 0.85 0.86 0.85 0.86 0.86
1.06 1.07 1.06 1.11 1.15 1.27 1.37 1.51 1.53 1.44 1.38 1.26 1.09 0.96 0.95 0.88 0.88 0.87 0.89 0.95 0.96 0.97 0.95 0.93 0.90 0.84 0.83 0.85 0.85 0.85 0.85 0.84
1.01 1.10 1.19 1.20 1.22 1.28 1.39 1.49 1.46 1.41 1.34 1.26 1.12 0.97 0.93 0.92 0.89 0.87 0.90 0.92 0.92 0.93 0.94 0.95 0.84 0.82 0.80 0.82 0.84 0.86 0.84 0.82
1.05 1.13 1.24 1.30 1.27 1.33 1.37 1.47 1.47 1.40 1.30 1.13 1.02 0.97 0.95 0.90 0.95 0.97 1.00 0.98 0.95 0.94 0.94 0.88 0.80 0.77 0.77 0.77 0.77 0.80 0.80 0.80
1.03 1.19 1.27 1.30 1.34 1.32 1.37 1.41 1.40 1.35 1.24 1.06 1.04 0.97 0.96 1.03 1.07 1.05 1.07 1.06 1.06 0.99 0.95 0.90 0.81 0.79 0.78 0.74 0.72 0.73 0.76 0.81
1.07 1.20 1.26 1.35 1.34 1.30 1.35 1.40 1.41 1.37 1.20 1.08 1.03 1.06 1.11 1.11 1.10 1.11 1.15 1.14 1.11 1.04 1.00 1.00 0.94 0.89 0.85 0.82 0.79 0.78 0.81 0.83
1.07 1.20 1.26 1.32 1.30 1.24 1.28 1.28 1.36 1.30 1.23 1.11 1.15 1.16 1.15 1.13 1.13 1.16 1.16 1.09 1.10 1.10 1.06 1.03 1.02 1.01 0.96 0.89 0.83 0.83 0.86 0.88
1.03 1.20 1.26 1.28 1.31 1.27 1.30 1.30 1.35 1.33 1.28 1.18 1.14 1.14 1.15 1.14 1.13 1.09 1.06 1.05 1.09 1.10 1.08 1.04 1.07 1.07 0.98 0.95 0.82 0.88 0.95 0.94
0.91 1.06 1.18 1.22 1.25 1.27 1.26 1.27 1.28 1.27 1.27 1.16 1.14 1.14 1.15 1.13 1.07 1.06 1.05 1.07 1.05 1.06 1.03 1.01 0.99 1.08 1.09 1.02 0.85 0.78 0.87 1.01
0.85 0.94 1.00 1.05 1.12 1.11 1.12 1.14 1.09 1.18 1.21 1.21 1.21 1.20 1.15 1.11 1.10 1.08 1.10 1.11 1.09 1.06 1.04 0.99 1.02 0.96 1.04 1.08 1.09 1.00 0.85 0.83
0.76 0.86 0.90 0.95 0.99 1.02 1.03 1.10 1.18 1.26 1.24 1.20 1.17 1.17 1.16 1.14 1.14 1.14 1.14 1.12 1.10 1.04 1.03 1.03 1.05 1.04 1.05 1.07 1.05 1.00 0.98 0.90
0.70 0.76 0.82 0.87 0.92 0.94 0.96 0.97 1.05 1.07 1.07 1.07 1.04 1.08 1.09 1.11 1.13 1.10 1.14 1.14 1.07 1.09 1.06 1.10 1.07 1.05 1.10 1.10 1.00 0.95 0.94 0.94
0.66 0.71 0.73 0.81 0.85 0.87 0.89 0.90 0.93 0.93 0.94 0.94 0.94 0.96 0.98 1.00 1.06 1.06 1.05 1.05 1.06 1.06 1.05 1.04 1.04 1.05 1.08 1.04 1.08 1.08 1.13 1.09
0.64 0.67 0.73 0.79 0.81 0.80 0.86 0.92 0.90 0.88 0.89 0.90 0.90 0.91 0.93 1.00 1.01 1.01 1.02 1.03 1.01 1.01 1.00 0.99 0.99 0.99 1.02 1.05 1.10 1.16 1.19 1.10

GFSFLT2_prec_pwat_078.txt.gz
Precipitable_Water
1.56 1.61 1.44 1.62 1.65 1.54 1.60 1.60 1.62 1.66 1.59 1.72 1.67 1.55 1.37 1.45 1.32 1.20 1.20 1.26 1.14 1.04 0.89 0.85 0.82 0.81 0.79 0.77 0.79 0.89 0.90 0.83
1.46 1.55 1.55 1.55 1.54 1.51 1.57 1.56 1.58 1.57 1.56 1.54 1.63 1.60 1.37 1.39 1.43 1.31 1.14 1.14 1.15 0.97 0.83 0.81 0.81 0.81 0.81 0.81 0.85 0.87 0.88 0.87
1.41 1.47 1.54 1.57 1.54 1.54 1.54 1.52 1.56 1.56 1.65 1.60 1.68 1.55 1.46 1.33 1.33 1.21 1.07 1.10 1.10 0.93 0.86 0.85 0.84 0.83 0.83 0.83 0.89 0.88 0.90 0.90
1.33 1.39 1.46 1.51 1.50 1.51 1.58 1.54 1.53 1.56 1.64 1.66 1.66 1.53 1.44 1.43 1.34 1.19 1.08 1.09 1.06 0.94 0.91 0.86 0.84 0.85 0.88 0.87 0.90 0.91 0.96 0.93
1.26 1.30 1.37 1.46 1.50 1.52 1.50 1.50 1.51 1.54 1.64 1.67 1.59 1.53 1.47 1.44 1.22 1.17 1.11 1.04 1.01 0.98 0.91 0.90 0.87 0.88 0.85 0.87 0.93 0.95 0.97 0.95
1.24 1.32 1.34 1.36 1.45 1.45 1.44 1.42 1.44 1.51 1.62 1.65 1.59 1.52 1.38 1.28 1.21 1.16 1.10 1.04 1.02 0.98 0.94 0.94 0.92 0.92 0.90 0.90 0.96 0.92 0.94 0.94
1.16 1.23 1.25 1.28 1.30 1.33 1.33 1.37 1.41 1.49 1.60 1.54 1.47 1.31 1.18 1.15 1.18 1.19 1.16 1.11 1.05 1.02 1.02 0.96 0.92 0.93 0.93 0.92 0.91 0.91 0.95 0.97
1.07 1.06 1.10 1.12 1.14 1.22 1.23 1.29 1.35 1.54 1.52 1.45 1.38 1.27 1.15 1.14 1.11 1.10 1.14 1.16 1.11 1.06 1.04 0.94 0.88 0.91 0.91 0.91 0.91 0.95 0.98 0.97
0.97 1.05 1.07 1.09 1.14 1.24 1.25 1.34 1.40 1.45 1.44 1.40 1.30 1.21 1.18 1.07 1.03 1.01 1.07 1.12 1.10 1.07 1.04 0.96 0.90 0.93 0.91 0.91 0.93 0.95 0.95 0.96
0.95 1.04 1.08 1.15 1.17 1.29 1.29 1.37 1.44 1.42 1.37 1.29 1.22 1.18 1.07 1.02 0.98 0.96 1.03 1.04 1.05 1.05 1.03 0.94 0.91 0.88 0.87 0.88 0.89 0.91 0.92 0.92
0.90 1.03 1.06 1.18 1.31 1.30 1.38 1.38 1.39 1.40 1.28 1.17 1.07 1.03 1.00 0.95 0.91 0.95 1.02 1.01 0.98 1.00 0.98 0.91 0.86 0.84 0.84 0.84 0.83 0.82 0.85 0.85
0.93 1.04 1.18 1.29 1.28 1.31 1.32 1.31 1.36 1.35 1.27 1.20 1.09 1.09 1.10 1.05 1.02 1.04 1.02 0.98 0.99 1.00 0.96 0.93 0.88 0.84 0.81 0.82 0.82 0.80 0.83 0.88
0.92 1.10 1.21 1.25 1.27 1.18 1.23 1.21 1.27 1.27 1.26 1.17 1.11 1.08 1.10 1.04 1.08 1.12 1.09 1.04 1.06 1.07 1.02 1.00 0.96 0.96 0.87 0.87 0.87 0.88 0.88 0.91
0.91 1.10 1.23 1.27 1.28 1.27 1.32 1.29 1.30 1.30 1.21 1.07 1.02 1.03 1.00 1.07 1.12 1.12 1.16 1.11 1.07 1.10 1.08 1.05 1.09 1.06 0.96 0.98 0.87 0.89 0.91 0.93
0.87 1.01 1.16 1.24 1.30 1.29 1.31 1.35 1.31 1.24 1.13 1.02 1.00 1.01 1.11 1.13 1.17 1.16 1.12 1.09 1.09 1.11 1.11 1.07 1.03 1.10 1.11 1.02 0.89 0.84 0.92 1.06
0.82 0.95 1.02 1.09 1.15 1.15 1.15 1.18 1.15 1.15 1.12 1.10 1.13 1.16 1.15 1.18 1.19 1.15 1.09 1.13 1.09 1.10 1.13 1.09 1.08 1.01 1.07 1.09 1.12 1.06 0.92 0.90
0.76 0.87 0.95 1.01 1.04 1.06 1.06 1.10 1.20 1.18 1.15 1.11 1.10 1.14 1.17 1.18 1.13 1.12 1.10 1.14 1.11 1.13 1.13 1.10 1.07 1.02 0.99 1.01 1.03 1.05 1.09 0.94
0.74 0.79 0.86 0.95 0.98 1.01 1.03 1.04 1.10 1.16 1.17 1.10 1.12 1.11 1.12 1.13 1.14 1.13 1.12 1.12 1.12 1.13 1.15 1.12 1.09 1.09 1.09 1.07 0.98 0.96 0.99 0.97
0.66 0.74 0.77 0.86 0.92 0.95 0.98 1.02 1.03 1.10 1.13 1.14 1.08 1.05 1.02 1.06 1.09 1.08 1.07 1.09 1.11 1.11 1.12 1.12 1.10 1.05 1.03 1.04 1.05 1.06 1.10 1.05
0.61 0.68 0.73 0.82 0.86 0.89 0.95 0.98 1.00 1.04 1.07 1.05 1.00 0.97 0.99 1.04 1.05 1.05 1.05 1.08 1.10 1.11 1.14 1.15 1.14 1.06 1.03 1.02 0.99 1.04 1.08 1.06

GFSFLT2_prec_pwat_081.txt.gz
Precipitable_Water
1.30 1.50 1.59 1.59 1.53 1.46 1.52 1.59 1.51 1.76 1.66 1.63 1.70 1.69 1.56 1.35 1.52 1.31 1.24 1.14 0.95 0.94 0.96 0.94 0.91 0.85 0.84 0.85 0.90 0.93 0.90 0.92
1.32 1.46 1.60 1.55 1.51 1.46 1.55 1.62 1.66 1.79 1.64 1.65 1.52 1.76 1.59 1.38 1.51 1.38 1.26 1.11 1.05 0.96 0.92 0.89 0.85 0.82 0.79 0.84 0.90 0.93 0.93 0.91
1.30 1.40 1.50 1.58 1.60 1.47 1.60 1.65 1.65 1.80 1.70 1.64 1.55 1.64 1.66 1.49 1.49 1.46 1.37 1.19 1.03 0.86 0.84 0.83 0.81 0.81 0.80 0.86 0.92 0.97 0.94 0.93
1.25 1.34 1.42 1.46 1.52 1.51 1.51 1.57 1.61 1.62 1.65 1.61 1.63 1.64 1.64 1.53 1.52 1.55 1.43 1.23 0.95 0.82 0.77 0.80 0.81 0.82 0.84 0.95 1.00 0.99 0.96 0.92
1.18 1.26 1.33 1.38 1.40 1.51 1.54 1.54 1.55 1.62 1.62 1.60 1.63 1.66 1.61 1.49 1.60 1.54 1.36 1.16 0.90 0.83 0.79 0.82 0.84 0.81 0.88 0.97 0.97 1.01 1.00 0.94
1.19 1.25 1.29 1.33 1.36 1.41 1.46 1.46 1.49 1.51 1.54 1.60 1.61 1.54 1.55 1.53 1.46 1.42 1.28 1.06 0.93 0.86 0.82 0.92 0.91 0.87 0.94 0.97 0.98 1.02 1.03 0.97
1.15 1.23 1.27 1.32 1.30 1.32 1.37 1.42 1.42 1.44 1.45 1.48 1.54 1.60 1.51 1.45 1.36 1.40 1.19 1.10 1.01 0.89 0.96 0.95 0.96 0.94 0.95 0.98 0.99 1.05 1.05 0.96
1.11 1.13 1.18 1.20 1.18 1.22 1.25 1.33 1.36 1.37 1.36 1.40 1.49 1.45 1.51 1.40 1.35 1.33 1.17 1.12 1.07 0.99 1.03 0.97 0.97 0.99 0.99 1.00 0.99 1.03 1.04 0.98
0.97 1.02 1.07 1.05 1.06 1.09 1.14 1.20 1.21 1.20 1.31 1.36 1.48 1.52 1.47 1.42 1.37 1.27 1.24 1.19 1.14 1.12 1.04 0.95 0.97 0.98 0.96 1.01 1.02 1.05 1.02 1.02
0.96 1.04 1.03 1.06 1.09 1.15 1.18 1.18 1.18 1.24 1.32 1.44 1.49 1.41 1.39 1.30 1.33 1.33 1.30 1.26 1.16 1.10 1.02 0.95 0.96 0.96 0.96 0.99 1.00 1.02 1.01 1.02
0.91 0.99 0.97 1.04 1.14 1.19 1.29 1.24 1.26 1.35 1.39 1.38 1.37 1.34 1.29 1.21 1.26 1.23 1.20 1.14 1.09 1.11 1.05 1.03 0.99 0.95 0.96 0.95 0.95 0.94 0.96 0.99
0.89 0.93 1.03 1.18 1.26 1.27 1.29 1.31 1.31 1.35 1.34 1.34 1.32 1.31 1.25 1.20 1.18 1.16 1.09 1.05 1.04 1.04 1.03 1.04 1.01 0.98 0.91 0.89 0.90 0.91 0.93 0.93
0.83 0.92 1.12 1.22 1.23 1.19 1.19 1.18 1.22 1.27 1.26 1.27 1.27 1.23 1.18 1.17 1.15 1.09 1.04 1.03 1.04 1.02 1.00 0.97 0.95 0.93 0.83 0.83 0.85 0.88 0.87 0.92
0.78 0.96 1.13 1.25 1.25 1.25 1.22 1.25 1.22 1.19 1.21 1.21 1.22 1.18 1.12 1.08 1.07 1.04 1.02 1.05 1.03 1.03 1.02 1.00 1.00 0.99 0.87 0.86 0.79 0.86 0.90 0.95
0.73 0.92 1.08 1.18 1.27 1.29 1.27 1.27 1.26 1.19 1.16 1.13 1.14 1.10 1.10 1.10 1.12 1.05 1.04 1.11 1.11 1.13 1.12 1.09 1.06 1.05 1.06 1.01 0.91 0.86 0.97 1.00
0.71 0.87 0.99 1.07 1.12 1.15 1.12 1.11 1.08 1.15 1.16 1.18 1.14 1.16 1.18 1.20 1.15 1.14 1.12 1.20 1.18 1.16 1.16 1.13 1.12 1.03 1.05 1.09 1.14 1.12 0.91 0.88
0.66 0.80 0.92 1.01 1.04 1.09 1.06 1.04 1.07 1.16 1.15 1.13 1.12 1.13 1.14 1.14 1.08 1.14 1.16 1.17 1.17 1.15 1.10 1.12 1.11 1.09 1.07 1.03 1.05 1.08 1.06 0.93
0.65 0.73 0.81 0.92 0.97 1.01 1.01 1.01 1.05 1.06 1.11 1.05 1.01 0.97 1.05 1.09 1.09 1.15 1.16 1.16 1.15 1.12 1.12 1.14 1.11 1.10 1.08 1.06 1.01 0.95 0.92 0.93
0.62 0.69 0.72 0.83 0.91 0.95 0.99 1.02 1.03 1.04 1.04 1.03 0.97 0.96 1.02 1.08 1.15 1.16 1.16 1.16 1.19 1.14 1.12 1.13 1.11 1.08 1.07 1.08 1.10 1.10 1.07 0.95
0.61 0.65 0.71 0.77 0.85 0.90 0.97 1.02 1.02 1.05 1.03 0.98 0.96 0.95 1.00 1.07 1.10 1.09 1.09 1.10 1.08 1.12 1.12 1.11 1.14 1.11 1.09 1.10 1.09 1.12 1.09 1.02

GFSFLT2_prec_pwat_084.txt.gz
Precipitable_Water
1.25 1.29 1.33 1.40 1.41 1.47 1.49 1.48 1.38 1.45 1.50 1.52 1.74 1.64 1.60 1.53 1.54 1.49 1.44 1.28 1.16 0.95 0.89 0.88 0.84 0.91 0.96 0.96 0.98 1.02 0.98 0.93
1.29 1.33 1.38 1.41 1.46 1.45 1.50 1.47 1.45 1.47 1.51 1.69 1.78 1.73 1.69 1.57 1.48 1.46 1.33 1.25 1.05 0.98 0.93 0.88 0.84 0.88 0.91 0.91 0.94 0.99 0.96 0.92
1.20 1.30 1.32 1.39 1.45 1.46 1.50 1.46 1.51 1.49 1.61 1.77 1.73 1.61 1.68 1.65 1.46 1.41 1.41 1.19 1.01 0.96 0.92 0.90 0.81 0.84 0.86 0.88 0.97 1.00 0.96 0.89
1.14 1.23 1.31 1.35 1.40 1.42 1.44 1.45 1.59 1.59 1.51 1.76 1.73 1.61 1.62 1.59 1.62 1.45 1.38 1.13 1.03 0.95 0.91 0.83 0.77 0.76 0.90 0.98 1.01 1.03 0.98 0.93
1.12 1.19 1.25 1.30 1.31 1.37 1.47 1.56 1.54 1.63 1.61 1.58 1.64 1.64 1.61 1.61 1.58 1.56 1.44 1.24 0.97 0.87 0.83 0.79 0.71 0.82 0.95 0.99 1.02 1.06 0.99 0.93
1.15 1.17 1.20 1.25 1.29 1.30 1.37 1.48 1.56 1.57 1.60 1.62 1.59 1.56 1.59 1.55 1.53 1.59 1.46 1.16 0.90 0.79 0.79 0.83 0.73 0.87 0.98 0.99 1.03 1.06 1.00 0.92
1.09 1.17 1.19 1.25 1.26 1.28 1.30 1.36 1.45 1.51 1.55 1.56 1.53 1.50 1.52 1.52 1.52 1.57 1.44 1.12 0.92 0.78 0.93 0.87 0.78 0.88 0.97 0.99 1.05 1.08 1.03 0.91
0.95 1.03 1.09 1.15 1.20 1.24 1.26 1.29 1.39 1.46 1.47 1.50 1.50 1.47 1.46 1.53 1.54 1.47 1.33 1.11 0.93 0.95 0.99 0.94 0.90 0.93 0.95 1.00 1.08 1.09 1.05 0.92
0.96 0.98 1.03 1.04 1.06 1.08 1.13 1.19 1.24 1.35 1.40 1.45 1.43 1.41 1.43 1.49 1.51 1.39 1.28 1.13 1.00 1.08 1.04 1.02 0.98 0.97 0.96 1.02 1.05 1.08 1.03 0.98
0.97 0.96 0.97 0.97 0.99 1.02 1.06 1.09 1.15 1.21 1.26 1.36 1.35 1.37 1.43 1.42 1.40 1.32 1.35 1.27 1.14 1.13 1.03 0.97 0.98 0.98 0.99 1.00 1.04 1.13 1.10 1.03
0.90 0.90 0.91 0.94 1.00 1.06 1.05 1.08 1.11 1.15 1.21 1.26 1.30 1.47 1.50 1.44 1.39 1.36 1.45 1.25 1.20 1.14 1.02 0.97 0.95 0.99 0.98 1.01 1.03 1.08 1.10 1.07
0.90 0.88 0.87 1.01 1.17 1.18 1.17 1.21 1.19 1.23 1.24 1.27 1.37 1.48 1.48 1.43 1.44 1.41 1.40 1.24 1.15 1.11 1.01 1.03 1.00 0.99 0.99 0.99 1.05 1.07 1.03 1.03
0.83 0.80 0.88 1.05 1.15 1.12 1.11 1.12 1.19 1.20 1.24 1.31 1.41 1.43 1.44 1.39 1.34 1.35 1.33 1.22 1.13 1.07 1.03 1.00 0.98 1.01 0.99 0.99 0.99 1.02 0.99 0.97
0.81 0.77 0.91 1.03 1.19 1.20 1.18 1.16 1.19 1.23 1.25 1.31 1.37 1.35 1.30 1.28 1.25 1.23 1.24 1.23 1.12 1.01 0.98 0.98 0.97 1.01 0.92 0.89 0.77 0.83 0.90 0.94
0.75 0.76 0.88 0.99 1.09 1.16 1.20 1.22 1.21 1.17 1.19 1.26 1.30 1.31 1.29 1.24 1.19 1.16 1.14 1.09 1.00 0.99 1.01 0.96 0.92 0.97 0.96 0.86 0.79 0.74 0.82 0.95
0.74 0.74 0.86 0.96 1.02 1.01 0.99 0.99 1.01 1.12 1.16 1.24 1.26 1.26 1.20 1.15 1.13 1.11 1.09 1.04 1.01 1.00 1.04 1.00 1.03 0.94 0.98 1.06 1.06 1.05 0.93 0.88
0.74 0.73 0.82 0.91 0.95 0.96 0.93 0.93 0.95 1.04 1.08 1.11 1.17 1.18 1.17 1.16 1.16 1.11 1.07 1.07 1.03 1.06 1.07 1.11 1.16 1.09 1.02 1.01 1.05 1.09 1.08 0.97
0.73 0.68 0.79 0.88 0.91 0.92 0.91 0.90 0.90 0.91 0.98 1.01 1.07 1.13 1.15 1.11 1.18 1.13 1.06 1.07 1.15 1.10 1.16 1.18 1.16 1.13 1.14 1.10 1.03 0.98 0.97 0.95
0.76 0.65 0.71 0.84 0.88 0.90 0.92 0.92 0.92 0.89 0.96 1.00 1.01 1.03 1.05 1.05 1.08 1.11 1.10 1.09 1.11 1.18 1.18 1.15 1.13 1.08 1.09 1.08 1.12 1.06 1.05 1.04
0.78 0.64 0.68 0.79 0.86 0.88 0.95 0.93 0.93 0.93 0.93 0.98 1.01 1.02 1.04 1.08 1.11 1.09 1.08 1.05 1.11 1.15 1.13 1.17 1.13 1.10 1.09 1.10 1.10 1.10 1.11 1.09